Regional Weather Roundup
Issued by NWS Portland, ME

Current Version | Previous Version | Text Only | Print | Product List | Glossary Off
Versions: 1 2 3 4 5 6 7 8 9 10 11 12 13 14 15 16 17 18 19 20 21 22 23 24 25 26 27 28 29 30 31 32 33 34 35 36 37 38 39 40 41 42 43 44 45 46 47 48 49 50
000 ASUS41 KGYX 162005 RWRGYX WEATHER ROUNDUP FOR MAINE AND NEW HAMPSHIRE NATIONAL WEATHER SERVICE GRAY ME 300 PM EST TUE JAN 16 2018 MEZ002-005-006-010-012-015-018-020-021-024-026-027-029-162100- MAINE CITY SKY/WX TMP DP RH WIND PRES REMARKS PORTLAND FAIR 26 16 65 VRB3 30.46S SANFORD PTSUNNY 31 18 58 SW7 30.45S BAR HARBOR FAIR 26 14 60 SW8 30.47R WISCASSET FAIR 26 15 63 S3 30.47S FRYEBURG FAIR 28 18 66 S5 30.41R LEWISTONAUBURN FAIR 27 16 63 S5 30.43S AUGUSTA CLOUDY 24 12 60 VRB3 30.44S WATERVILLE CLOUDY 24 12 60 S6 30.39F BANGOR FAIR 24 11 57 VRB5 30.45S GREENVILLE NOT AVBL MILLINOCKET FAIR 20 10 65 CALM 30.42S HOULTON CLOUDY 14 9 80 CALM 30.40R HAZE PRESQUE ISLE FLURRIES 12 3 67 CALM 30.41S FRENCHVILLE LGT SNOW 5 2 87 CALM 30.34F FOG CARIBOU CLOUDY 10 3 73 CALM 30.38F $$ NHZ002-005-008-009-011-012-014-162100- NEW HAMPSHIRE CITY SKY/WX TMP DP RH WIND PRES REMARKS PORTSMOUTH CLOUDY 30 17 58 CALM 30.44R ROCHESTER CLOUDY 31 18 58 S6 30.42S NASHUA CLOUDY 32 20 61 VRB3 30.44S MANCHESTER PTSUNNY 31 18 58 S7 30.42S CONCORD PTSUNNY 30 17 58 S7 30.43R PLYMOUTH CLOUDY 24 17 73 CALM 30.41S BERLIN LGT SNOW 22 16 78 CALM 30.34R WHITEFIELD CLOUDY 21 15 78 CALM 30.35S JAFFREY CLOUDY 29 22 75 S7 30.38S KEENE CLOUDY 31 22 69 SW7 30.41S LEBANON PTSUNNY 29 18 63 SW6 30.38S MT WASHINGTON SNOWSHWR 7 7 100 W36G47 N/A VSB 1/16WCI -18 $$ VTZ005-007-008-162100- VERMONT CITY SKY/WX TMP DP RH WIND PRES REMARKS ST JOHNSBURY N/A 24 18 77 MISG 30.36S MONTPELIER CLOUDY 23 19 85 S9 30.36S BURLINGTON FLURRIES 27 18 69 S6 30.39S $$ MAZ007-012-024-CTZ003-RIZ002-NYZ038-NYZ072-162100- SOUTHERN NEW ENGLAND AND NY CITY SKY/WX TMP DP RH WIND PRES REMARKS BOSTON PTSUNNY 32 23 69 SE5 30.46S WORCESTER CLOUDY 29 20 69 S7 30.39S NANTUCKET FAIR 36 27 69 SE5 30.48R PROVIDENCE PTSUNNY 35 28 75 SE8 30.46S HARTFORD FLURRIES 31 24 75 S6 30.44F ALBANY FLURRIES 30 22 72 S5 30.41F NEW YORK CITY CLOUDY 32 25 75 NE9 30.43S $$ ANZ081-ANZ082-ANZ150-NHZ014-MEZ023>029-162100- COASTAL MARINE OBSERVATIONS STATION/POSITION TIME TEMP WIND PRES WAVE AIR SEA DIR/SP/G HT/PER (UTC) (F) (DEG/KT/KT) (MB) (FT/S) MOUNT DESERT ROC 2000 26 240/ 12/ 15 1032.1R MATINICUS ROCK 1900 25 270/ 9/ 11 1031.4R ISLE OF SHOALS 1900 27 200/ 6/ 7 1031.4F JEFFREYS LEDGE 1936 44 N/A 7/11 GEORGES BANK BUO 1850 39 53 1028.2 10/ 9 $$ .............KEY.............. WCI - WIND CHILL TC - TEMPERATURE IN CELSIUS VSB - VISIBILITY IN MILES HX - HEAT INDEX FAIR- INDICATES FEW OR NO CLOUDS BELOW 12,000 FT, WITH NO SIGNIFICANT WEATHER AND/OR OBSTRUCTIONS TO VISIBILITY.

USA.gov is the U.S. government's official web portal to all federal, state and local government web resources and services.